QPF
0.00 0.00 0.00 0.00 0.01 0.01 0.00 0.00 0.00 0.00 0.00 0.00 0.00 0.00 0.00 0.00 0.00 0.00 0.00 0.00 0.00 0.00 0.00 0.00 0.01 0.01 0.01 0.01 0.01 0.01 0.01 0.00 0.01 0.02 0.01 0.00 0.01 0.01 0.01 0.01 0.01 0.00 0.00 0.00
0.00 0.00 0.00 0.00 0.00 0.00 0.00 0.00 0.00 0.00 0.00 0.00 0.00 0.00 0.00 0.00 0.00 0.00 0.00 0.00 0.00 0.00 0.00 0.00 0.00 0.00 0.01 0.01 0.01 0.01 0.01 0.01 0.01 0.02 0.01 0.00 0.00 0.01 0.01 0.01 0.01 0.01 0.00 0.00
0.00 0.00 0.00 0.00 0.00 0.00 0.00 0.00 0.00 0.00 0.00 0.01 0.00 0.00 0.00 0.00 0.00 0.00 0.00 0.00 0.00 0.00 0.00 0.00 0.00 0.00 0.01 0.02 0.02 0.01 0.01 0.01 0.02 0.02 0.01 0.00 0.00 0.01 0.01 0.01 0.02 0.01 0.01 0.01
0.00 0.00 0.00 0.01 0.00 0.00 0.00 0.00 0.00 0.00 0.00 0.00 0.00 0.00 0.00 0.00 0.00 0.00 0.00 0.00 0.00 0.00 0.00 0.00 0.00 0.00 0.01 0.02 0.02 0.02 0.01 0.01 0.02 0.02 0.01 0.01 0.01 0.01 0.01 0.01 0.01 0.01 0.01 0.01
0.00 0.00 0.00 0.01 0.00 0.00 0.00 0.00 0.00 0.00 0.00 0.00 0.00 0.00 0.00 0.00 0.00 0.00 0.00 0.00 0.00 0.00 0.00 0.00 0.01 0.01 0.01 0.02 0.02 0.02 0.02 0.02 0.02 0.02 0.02 0.02 0.02 0.02 0.02 0.02 0.01 0.01 0.01 0.01
0.00 0.00 0.00 0.00 0.00 0.00 0.00 0.01 0.00 0.00 0.00 0.00 0.00 0.00 0.00 0.00 0.00 0.00 0.00 0.00 0.00 0.00 0.00 0.00 0.01 0.01 0.01 0.01 0.02 0.01 0.02 0.02 0.02 0.03 0.02 0.02 0.03 0.03 0.02 0.02 0.01 0.01 0.01 0.01
0.00 0.00 0.00 0.00 0.00 0.00 0.01 0.00 0.00 0.00 0.00 0.00 0.00 0.00 0.00 0.00 0.00 0.00 0.01 0.00 0.00 0.00 0.00 0.00 0.01 0.01 0.01 0.01 0.02 0.02 0.01 0.02 0.03 0.03 0.02 0.02 0.04 0.04 0.02 0.02 0.01 0.01 0.02 0.02
0.00 0.00 0.00 0.00 0.00 0.00 0.00 0.00 0.00 0.00 0.00 0.00 0.00 0.01 0.00 0.00 0.00 0.00 0.00 0.00 0.00 0.00 0.00 0.00 0.00 0.00 0.00 0.01 0.01 0.02 0.02 0.02 0.04 0.04 0.03 0.03 0.04 0.05 0.03 0.02 0.01 0.01 0.02 0.03
0.00 0.00 0.00 0.00 0.00 0.00 0.00 0.00 0.00 0.00 0.00 0.00 0.00 0.00 0.00 0.00 0.00 0.00 0.00 0.00 0.00 0.00 0.00 0.00 0.00 0.00 0.01 0.01 0.01 0.01 0.02 0.03 0.03 0.04 0.04 0.04 0.04 0.05 0.04 0.02 0.01 0.01 0.01 0.02
0.00 0.00 0.00 0.00 0.00 0.00 0.00 0.00 0.00 0.00 0.00 0.00 0.00 0.00 0.00 0.00 0.00 0.00 0.00 0.00 0.01 0.00 0.00 0.00 0.00 0.01 0.01 0.01 0.00 0.01 0.02 0.03 0.03 0.05 0.05 0.04 0.04 0.04 0.02 0.02 0.01 0.01 0.01 0.01
0.01 0.01 0.00 0.00 0.00 0.00 0.00 0.00 0.00 0.00 0.00 0.00 0.00 0.00 0.00 0.00 0.00 0.00 0.00 0.00 0.00 0.01 0.01 0.01 0.01 0.01 0.01 0.01 0.01 0.02 0.03 0.03 0.04 0.05 0.04 0.02 0.02 0.02 0.02 0.02 0.01 0.01 0.01 0.01
0.02 0.01 0.00 0.00 0.00 0.00 0.00 0.00 0.00 0.00 0.00 0.00 0.00 0.00 0.00 0.00 0.00 0.00 0.00 0.00 0.00 0.01 0.01 0.01 0.01 0.01 0.02 0.02 0.03 0.04 0.04 0.04 0.04 0.03 0.02 0.01 0.01 0.01 0.01 0.01 0.02 0.02 0.02 0.02
0.02 0.01 0.01 0.00 0.00 0.00 0.00 0.00 0.00 0.00 0.00 0.00 0.00 0.00 0.00 0.00 0.00 0.00 0.00 0.00 0.00 0.01 0.02 0.01 0.01 0.01 0.02 0.03 0.04 0.04 0.03 0.03 0.03 0.02 0.01 0.01 0.01 0.01 0.01 0.02 0.03 0.03 0.04 0.04
0.02 0.01 0.01 0.00 0.00 0.00 0.00 0.00 0.00 0.00 0.00 0.00 0.00 0.00 0.00 0.00 0.00 0.00 0.00 0.00 0.00 0.01 0.01 0.01 0.01 0.02 0.02 0.04 0.03 0.02 0.02 0.03 0.02 0.01 0.01 0.01 0.02 0.02 0.02 0.02 0.02 0.02 0.03 0.03
0.02 0.01 0.01 0.00 0.00 0.00 0.00 0.00 0.00 0.00 0.00 0.00 0.00 0.00 0.00 0.00 0.00 0.00 0.00 0.00 0.01 0.01 0.01 0.01 0.02 0.03 0.01 0.02 0.02 0.02 0.02 0.02 0.01 0.01 0.01 0.01 0.01 0.01 0.01 0.01 0.01 0.01 0.01 0.01
0.02 0.01 0.00 0.00 0.00 0.00 0.00 0.00 0.00 0.00 0.00 0.00 0.00 0.00 0.00 0.00 0.00 0.00 0.00 0.00 0.00 0.00 0.00 0.00 0.01 0.01 0.01 0.01 0.01 0.01 0.01 0.01 0.00 0.01 0.00 0.00 0.00 0.00 0.00 0.01 0.01 0.00 0.00 0.01
0.02 0.01 0.01 0.00 0.00 0.00 0.00 0.00 0.00 0.00 0.00 0.00 0.00 0.00 0.00 0.00 0.00 0.00 0.00 0.00 0.00 0.00 0.00 0.00 0.00 0.01 0.01 0.01 0.01 0.01 0.01 0.01 0.00 0.01 0.01 0.01 0.00 0.00 0.00 0.01 0.01 0.01 0.01 0.01
0.02 0.01 0.01 0.00 0.01 0.00 0.00 0.00 0.00 0.00 0.00 0.00 0.00 0.00 0.00 0.00 0.00 0.00 0.00 0.00 0.00 0.00 0.00 0.00 0.00 0.00 0.00 0.00 0.01 0.01 0.01 0.01 0.00 0.01 0.01 0.01 0.01 0.01 0.01 0.01 0.01 0.01 0.01 0.01
0.01 0.01 0.01 0.01 0.01 0.00 0.00 0.00 0.00 0.00 0.00 0.00 0.00 0.00 0.00 0.00 0.00 0.00 0.00 0.00 0.00 0.00 0.00 0.00 0.00 0.00 0.00 0.00 0.01 0.01 0.01 0.01 0.00 0.00 0.00 0.01 0.01 0.01 0.02 0.02 0.01 0.01 0.01 0.01
0.01 0.01 0.01 0.00 0.00 0.00 0.00 0.00 0.00 0.00 0.00 0.00 0.00 0.00 0.00 0.00 0.00 0.00 0.00 0.00 0.00 0.00 0.00 0.00 0.00 0.00 0.00 0.01 0.01 0.01 0.01 0.01 0.01 0.01 0.01 0.01 0.01 0.01 0.02 0.02 0.02 0.01 0.01 0.02
0.01 0.01 0.01 0.00 0.00 0.00 0.00 0.00 0.00 0.00 0.00 0.00 0.00 0.00 0.00 0.00 0.00 0.00 0.00 0.00 0.00 0.00 0.00 0.00 0.00 0.00 0.00 0.00 0.01 0.01 0.01 0.01 0.02 0.01 0.01 0.01 0.01 0.01 0.02 0.02 0.01 0.01 0.01 0.01
0.01 0.01 0.01 0.01 0.00 0.00 0.00 0.00 0.00 0.00 0.00 0.00 0.00 0.00 0.00 0.00 0.00 0.00 0.00 0.00 0.00 0.00 0.00 0.00 0.00 0.00 0.00 0.00 0.01 0.01 0.01 0.02 0.02 0.02 0.02 0.02 0.01 0.02 0.02 0.02 0.02 0.01 0.01 0.02
0.00 0.00 0.01 0.01 0.01 0.00 0.00 0.00 0.00 0.00 0.00 0.00 0.00 0.00 0.00 0.00 0.00 0.00 0.00 0.00 0.00 0.00 0.00 0.00 0.00 0.00 0.00 0.01 0.02 0.02 0.02 0.02 0.01 0.01 0.02 0.02 0.01 0.01 0.01 0.01 0.01 0.01 0.01 0.01
0.00 0.00 0.00 0.00 0.00 0.00 0.00 0.00 0.00 0.00 0.00 0.00 0.00 0.00 0.00 0.00 0.00 0.00 0.00 0.00 0.00 0.00 0.00 0.00 0.00 0.00 0.01 0.01 0.02 0.01 0.01 0.01 0.01 0.01 0.02 0.01 0.01 0.01 0.01 0.01 0.01 0.01 0.01 0.01
0.00 0.00 0.00 0.00 0.00 0.00 0.00 0.00 0.00 0.00 0.00 0.00 0.00 0.00 0.00 0.00 0.00 0.00 0.00 0.00 0.00 0.00 0.00 0.00 0.00 0.01 0.01 0.02 0.02 0.01 0.01 0.01 0.01 0.01 0.01 0.01 0.01 0.01 0.01 0.01 0.00 0.00 0.00 0.00
0.00 0.00 0.00 0.00 0.00 0.00 0.00 0.00 0.00 0.00 0.00 0.00 0.00 0.00 0.00 0.00 0.00 0.00 0.00 0.00 0.00 0.00 0.00 0.00 0.01 0.01 0.01 0.02 0.02 0.02 0.01 0.00 0.00 0.00 0.00 0.00 0.00 0.00 0.00 0.00 0.00 0.00 0.00 0.00
MSLP
1016.97 1017.90 1018.72 1019.40 1019.95 1020.39 1020.77 1021.12 1021.46 1021.81 1022.16 1022.49 1022.77 1022.98 1023.10 1023.12 1023.05 1022.92 1022.73 1022.51 1022.28 1022.06 1021.85 1021.66 1021.47 1021.29 1021.11 1020.93 1020.76 1020.60 1020.47 1020.37 1020.31 1020.29 1020.29 1020.32 1020.35 1020.38 1020.39 1020.40 1020.40 1020.40 1020.44 1020.52
1017.62 1018.38 1019.01 1019.52 1019.95 1020.33 1020.71 1021.12 1021.57 1022.03 1022.47 1022.86 1023.16 1023.34 1023.40 1023.34 1023.19 1023.00 1022.79 1022.59 1022.42 1022.27 1022.14 1022.00 1021.84 1021.65 1021.43 1021.19 1020.96 1020.75 1020.59 1020.50 1020.48 1020.51 1020.57 1020.65 1020.72 1020.75 1020.73 1020.69 1020.62 1020.57 1020.54 1020.57
1018.10 1018.66 1019.11 1019.47 1019.81 1020.18 1020.61 1021.12 1021.69 1022.27 1022.81 1023.24 1023.53 1023.64 1023.59 1023.41 1023.16 1022.90 1022.66 1022.48 1022.37 1022.31 1022.27 1022.21 1022.10 1021.92 1021.67 1021.39 1021.10 1020.85 1020.67 1020.59 1020.60 1020.68 1020.81 1020.95 1021.05 1021.09 1021.07 1020.99 1020.87 1020.76 1020.68 1020.67
1018.42 1018.79 1019.08 1019.33 1019.63 1020.03 1020.55 1021.19 1021.90 1022.60 1023.22 1023.67 1023.90 1023.91 1023.72 1023.39 1023.00 1022.63 1022.35 1022.19 1022.14 1022.17 1022.23 1022.26 1022.22 1022.07 1021.83 1021.53 1021.20 1020.92 1020.72 1020.64 1020.68 1020.82 1021.00 1021.19 1021.34 1021.41 1021.38 1021.28 1021.13 1020.97 1020.85 1020.79
1018.65 1018.85 1019.00 1019.19 1019.49 1019.95 1020.59 1021.38 1022.24 1023.06 1023.74 1024.17 1024.33 1024.20 1023.83 1023.31 1022.75 1022.26 1021.92 1021.75 1021.75 1021.88 1022.05 1022.19 1022.23 1022.15 1021.93 1021.63 1021.29 1020.98 1020.77 1020.69 1020.75 1020.91 1021.14 1021.38 1021.56 1021.65 1021.64 1021.53 1021.37 1021.18 1021.02 1020.93
1018.86 1018.91 1018.96 1019.11 1019.44 1020.00 1020.78 1021.73 1022.72 1023.64 1024.35 1024.75 1024.80 1024.50 1023.93 1023.21 1022.47 1021.85 1021.43 1021.25 1021.29 1021.50 1021.78 1022.03 1022.18 1022.17 1022.00 1021.71 1021.37 1021.05 1020.83 1020.74 1020.79 1020.97 1021.22 1021.48 1021.69 1021.80 1021.81 1021.70 1021.53 1021.34 1021.16 1021.05
1019.08 1019.02 1019.00 1019.15 1019.53 1020.19 1021.11 1022.19 1023.31 1024.30 1025.01 1025.36 1025.28 1024.81 1024.05 1023.13 1022.21 1021.45 1020.95 1020.75 1020.82 1021.10 1021.48 1021.84 1022.09 1022.16 1022.05 1021.79 1021.45 1021.13 1020.88 1020.77 1020.81 1020.98 1021.23 1021.49 1021.71 1021.84 1021.85 1021.76 1021.60 1021.41 1021.23 1021.11
1019.30 1019.17 1019.12 1019.29 1019.74 1020.50 1021.53 1022.71 1023.91 1024.93 1025.63 1025.89 1025.70 1025.08 1024.14 1023.05 1021.99 1021.12 1020.55 1020.32 1020.42 1020.75 1021.21 1021.65 1021.98 1022.12 1022.07 1021.84 1021.52 1021.19 1020.93 1020.79 1020.80 1020.93 1021.16 1021.40 1021.62 1021.75 1021.77 1021.69 1021.54 1021.36 1021.20 1021.08
1019.48 1019.32 1019.28 1019.49 1020.00 1020.84 1021.94 1023.19 1024.41 1025.42 1026.08 1026.27 1025.96 1025.22 1024.16 1022.96 1021.80 1020.86 1020.25 1020.01 1020.11 1020.48 1020.98 1021.48 1021.86 1022.06 1022.05 1021.85 1021.54 1021.21 1020.92 1020.75 1020.73 1020.82 1021.01 1021.23 1021.42 1021.54 1021.57 1021.50 1021.37 1021.22 1021.07 1020.97
1019.54 1019.41 1019.42 1019.68 1020.25 1021.14 1022.27 1023.52 1024.71 1025.67 1026.26 1026.37 1025.99 1025.17 1024.05 1022.80 1021.62 1020.66 1020.03 1019.79 1019.90 1020.27 1020.79 1021.31 1021.71 1021.93 1021.95 1021.77 1021.48 1021.14 1020.85 1020.66 1020.60 1020.66 1020.81 1020.99 1021.16 1021.27 1021.29 1021.24 1021.13 1020.99 1020.87 1020.78
1019.42 1019.37 1019.47 1019.80 1020.42 1021.31 1022.42 1023.61 1024.72 1025.58 1026.08 1026.12 1025.68 1024.85 1023.74 1022.52 1021.37 1020.45 1019.86 1019.64 1019.75 1020.11 1020.61 1021.11 1021.50 1021.72 1021.74 1021.58 1021.30 1020.99 1020.70 1020.50 1020.43 1020.46 1020.58 1020.73 1020.88 1020.97 1021.00 1020.96 1020.86 1020.75 1020.65 1020.58
1019.13 1019.21 1019.42 1019.82 1020.47 1021.34 1022.36 1023.43 1024.41 1025.14 1025.52 1025.48 1025.03 1024.22 1023.18 1022.06 1021.02 1020.19 1019.66 1019.47 1019.59 1019.92 1020.38 1020.83 1021.19 1021.38 1021.40 1021.26 1021.01 1020.73 1020.48 1020.30 1020.23 1020.26 1020.37 1020.51 1020.64 1020.73 1020.75 1020.72 1020.64 1020.55 1020.47 1020.42
1018.72 1018.96 1019.29 1019.77 1020.42 1021.22 1022.12 1023.02 1023.81 1024.37 1024.61 1024.50 1024.04 1023.30 1022.37 1021.39 1020.50 1019.80 1019.37 1019.23 1019.35 1019.65 1020.05 1020.44 1020.75 1020.92 1020.93 1020.82 1020.62 1020.40 1020.20 1020.08 1020.05 1020.10 1020.21 1020.35 1020.48 1020.56 1020.60 1020.58 1020.52 1020.45 1020.39 1020.36
1018.29 1018.69 1019.15 1019.69 1020.32 1021.02 1021.74 1022.43 1022.99 1023.34 1023.43 1023.24 1022.78 1022.11 1021.31 1020.50 1019.79 1019.25 1018.93 1018.85 1018.98 1019.25 1019.59 1019.92 1020.17 1020.32 1020.35 1020.28 1020.15 1020.02 1019.91 1019.87 1019.91 1020.00 1020.14 1020.29 1020.43 1020.52 1020.56 1020.56 1020.53 1020.48 1020.44 1020.43
1017.96 1018.52 1019.07 1019.64 1020.21 1020.78 1021.30 1021.74 1022.04 1022.16 1022.08 1021.80 1021.33 1020.73 1020.07 1019.44 1018.90 1018.52 1018.32 1018.30 1018.44 1018.68 1018.97 1019.25 1019.47 1019.61 1019.67 1019.68 1019.65 1019.63 1019.64 1019.71 1019.83 1019.99 1020.17 1020.34 1020.49 1020.59 1020.65 1020.67 1020.67 1020.65 1020.64 1020.65
1017.81 1018.47 1019.09 1019.65 1020.13 1020.54 1020.83 1021.01 1021.05 1020.93 1020.67 1020.29 1019.80 1019.26 1018.72 1018.24 1017.86 1017.62 1017.53 1017.57 1017.72 1017.95 1018.20 1018.45 1018.66 1018.83 1018.95 1019.05 1019.15 1019.27 1019.41 1019.60 1019.81 1020.04 1020.27 1020.48 1020.64 1020.77 1020.85 1020.89 1020.92 1020.94 1020.97 1021.00
1017.85 1018.56 1019.19 1019.69 1020.06 1020.29 1020.36 1020.27 1020.05 1019.72 1019.29 1018.80 1018.29 1017.79 1017.35 1016.99 1016.74 1016.62 1016.61 1016.70 1016.87 1017.08 1017.32 1017.56 1017.79 1018.01 1018.22 1018.44 1018.68 1018.94 1019.23 1019.54 1019.85 1020.16 1020.43 1020.67 1020.85 1021.00 1021.10 1021.18 1021.25 1021.31 1021.38 1021.45
1018.00 1018.70 1019.27 1019.69 1019.92 1019.96 1019.82 1019.51 1019.07 1018.55 1017.98 1017.41 1016.87 1016.40 1016.03 1015.76 1015.61 1015.57 1015.62 1015.75 1015.93 1016.14 1016.38 1016.64 1016.91 1017.21 1017.53 1017.88 1018.26 1018.67 1019.10 1019.52 1019.93 1020.30 1020.61 1020.88 1021.09 1021.25 1021.38 1021.49 1021.61 1021.72 1021.83 1021.94
1018.13 1018.74 1019.21 1019.50 1019.58 1019.46 1019.14 1018.66 1018.07 1017.41 1016.74 1016.12 1015.58 1015.14 1014.81 1014.62 1014.54 1014.55 1014.64 1014.79 1014.98 1015.20 1015.46 1015.75 1016.08 1016.46 1016.90 1017.38 1017.90 1018.45 1019.00 1019.52 1020.01 1020.43 1020.78 1021.06 1021.29 1021.47 1021.63 1021.79 1021.95 1022.11 1022.27 1022.42
1018.07 1018.53 1018.85 1019.00 1018.94 1018.69 1018.24 1017.66 1016.97 1016.26 1015.56 1014.93 1014.41 1014.01 1013.74 1013.60 1013.56 1013.61 1013.72 1013.89 1014.09 1014.32 1014.61 1014.94 1015.34 1015.82 1016.36 1016.96 1017.60 1018.26 1018.91 1019.52 1020.06 1020.52 1020.90 1021.20 1021.45 1021.65 1021.84 1022.04 1022.24 1022.45 1022.66 1022.85
1017.70 1017.96 1018.11 1018.11 1017.93 1017.58 1017.07 1016.44 1015.75 1015.05 1014.38 1013.81 1013.34 1013.00 1012.79 1012.70 1012.70 1012.78 1012.91 1013.09 1013.30 1013.56 1013.88 1014.26 1014.73 1015.28 1015.92 1016.61 1017.35 1018.10 1018.82 1019.48 1020.06 1020.56 1020.96 1021.28 1021.54 1021.77 1022.00 1022.22 1022.47 1022.72 1022.96 1023.18
1016.95 1017.01 1016.97 1016.83 1016.55 1016.14 1015.62 1015.02 1014.38 1013.76 1013.19 1012.70 1012.33 1012.08 1011.94 1011.91 1011.95 1012.06 1012.21 1012.41 1012.64 1012.93 1013.28 1013.72 1014.25 1014.87 1015.57 1016.34 1017.14 1017.95 1018.71 1019.41 1020.01 1020.53 1020.94 1021.29 1021.57 1021.83 1022.09 1022.35 1022.62 1022.90 1023.17 1023.40
1015.89 1015.73 1015.52 1015.24 1014.89 1014.47 1013.97 1013.45 1012.91 1012.41 1011.96 1011.61 1011.35 1011.20 1011.15 1011.18 1011.28 1011.42 1011.61 1011.84 1012.10 1012.43 1012.82 1013.31 1013.89 1014.56 1015.31 1016.12 1016.95 1017.78 1018.56 1019.28 1019.90 1020.42 1020.86 1021.23 1021.54 1021.83 1022.12 1022.41 1022.71 1023.00 1023.28 1023.50
1014.62 1014.26 1013.90 1013.52 1013.12 1012.70 1012.26 1011.82 1011.41 1011.04 1010.73 1010.52 1010.38 1010.34 1010.38 1010.48 1010.64 1010.84 1011.07 1011.34 1011.65 1012.02 1012.47 1012.99 1013.61 1014.31 1015.09 1015.91 1016.76 1017.58 1018.37 1019.08 1019.71 1020.25 1020.71 1021.10 1021.45 1021.78 1022.10 1022.41 1022.72 1023.02 1023.29 1023.50
1013.32 1012.81 1012.32 1011.86 1011.42 1011.01 1010.63 1010.28 1009.98 1009.73 1009.56 1009.46 1009.44 1009.49 1009.61 1009.79 1010.01 1010.26 1010.55 1010.88 1011.25 1011.67 1012.16 1012.73 1013.38 1014.10 1014.88 1015.69 1016.52 1017.33 1018.10 1018.81 1019.44 1020.00 1020.48 1020.91 1021.31 1021.67 1022.02 1022.36 1022.67 1022.97 1023.21 1023.40
1012.13 1011.50 1010.92 1010.41 1009.96 1009.57 1009.23 1008.95 1008.73 1008.58 1008.49 1008.48 1008.54 1008.66 1008.85 1009.08 1009.36 1009.67 1010.02 1010.41 1010.84 1011.32 1011.86 1012.46 1013.13 1013.86 1014.63 1015.42 1016.22 1017.01 1017.75 1018.45 1019.09 1019.66 1020.18 1020.65 1021.09 1021.50 1021.88 1022.24 1022.56 1022.84 1023.07 1023.24
Thickness
5739 5725 5715 5718 5721 5720 5714 5709 5705 5713 5725 5717 5710 5711 5718 5721 5719 5717 5715 5714 5713 5715 5719 5719 5718 5716 5714 5711 5709 5707 5705 5703 5702 5700 5698 5696 5694 5694 5695 5695 5695 5695 5695 5694
5722 5718 5728 5731 5728 5721 5715 5708 5706 5714 5724 5717 5708 5710 5719 5720 5720 5720 5719 5716 5716 5715 5716 5716 5716 5714 5712 5710 5707 5705 5704 5702 5701 5699 5697 5696 5694 5692 5692 5692 5692 5692 5692 5691
5718 5725 5735 5730 5723 5717 5714 5709 5709 5710 5716 5715 5709 5705 5712 5721 5723 5723 5722 5720 5719 5717 5715 5714 5713 5712 5710 5708 5707 5706 5703 5701 5700 5698 5696 5694 5692 5690 5689 5689 5689 5689 5689 5688
5722 5730 5730 5724 5720 5718 5708 5721 5718 5714 5703 5694 5702 5683 5704 5712 5715 5719 5720 5718 5718 5719 5717 5714 5713 5711 5709 5708 5707 5705 5702 5700 5698 5697 5695 5692 5688 5686 5686 5686 5686 5686 5686 5686
5719 5727 5725 5719 5723 5724 5718 5723 5717 5711 5702 5692 5693 5684 5693 5707 5708 5715 5718 5719 5720 5719 5718 5716 5714 5712 5710 5708 5705 5703 5701 5699 5697 5695 5693 5690 5688 5686 5685 5684 5684 5684 5684 5683
5722 5731 5730 5727 5732 5730 5724 5715 5706 5695 5688 5678 5688 5682 5685 5698 5708 5716 5721 5720 5720 5719 5718 5716 5714 5711 5708 5706 5703 5701 5698 5696 5694 5693 5691 5689 5687 5685 5683 5682 5681 5681 5681 5681
5711 5721 5730 5733 5722 5721 5714 5695 5675 5672 5665 5670 5687 5683 5688 5711 5717 5718 5719 5720 5720 5718 5715 5712 5710 5708 5705 5703 5700 5698 5695 5693 5692 5690 5689 5687 5686 5684 5682 5681 5679 5678 5678 5678
5694 5696 5719 5726 5720 5710 5706 5696 5673 5663 5659 5667 5682 5679 5698 5717 5721 5722 5722 5721 5719 5716 5714 5711 5709 5707 5704 5702 5699 5696 5693 5691 5689 5688 5687 5685 5684 5683 5681 5680 5678 5677 5676 5676
5690 5694 5719 5726 5726 5717 5701 5692 5692 5673 5670 5663 5671 5684 5702 5717 5718 5719 5718 5716 5714 5713 5712 5710 5708 5705 5703 5700 5698 5695 5692 5690 5688 5686 5685 5683 5682 5681 5680 5678 5677 5676 5675 5675
5700 5693 5709 5718 5721 5716 5709 5695 5678 5670 5660 5655 5667 5675 5683 5702 5707 5710 5711 5711 5711 5711 5710 5708 5706 5704 5701 5699 5696 5693 5691 5689 5687 5685 5683 5682 5680 5679 5678 5676 5675 5674 5673 5673
5702 5691 5697 5705 5703 5699 5697 5691 5680 5667 5664 5654 5653 5670 5700 5703 5707 5706 5707 5709 5708 5708 5707 5705 5704 5702 5699 5697 5694 5691 5689 5686 5685 5683 5682 5680 5678 5676 5675 5674 5673 5672 5671 5670
5695 5683 5680 5693 5707 5710 5703 5695 5681 5670 5665 5657 5653 5669 5707 5705 5706 5706 5705 5706 5706 5706 5705 5703 5701 5698 5695 5693 5691 5689 5686 5684 5683 5681 5679 5677 5675 5673 5672 5671 5670 5669 5668 5666
5692 5680 5671 5676 5685 5696 5696 5694 5687 5676 5663 5652 5651 5672 5703 5702 5703 5704 5703 5702 5702 5702 5701 5699 5697 5694 5692 5690 5689 5686 5684 5682 5680 5678 5675 5673 5671 5670 5669 5668 5667 5666 5665 5663
5696 5678 5672 5670 5676 5685 5687 5689 5684 5675 5661 5656 5661 5674 5693 5696 5697 5699 5700 5699 5699 5698 5697 5695 5693 5691 5689 5687 5686 5684 5681 5679 5677 5675 5672 5670 5668 5667 5666 5665 5664 5663 5662 5660
5690 5676 5677 5680 5686 5686 5685 5686 5683 5678 5675 5669 5675 5677 5690 5694 5695 5697 5697 5696 5696 5694 5693 5692 5690 5688 5686 5685 5683 5681 5679 5676 5674 5671 5669 5667 5666 5664 5662 5661 5660 5659 5657 5657
5680 5675 5674 5677 5683 5681 5679 5684 5683 5681 5681 5677 5678 5681 5695 5695 5693 5692 5692 5692 5691 5691 5691 5690 5688 5686 5684 5682 5680 5678 5676 5674 5671 5668 5666 5664 5662 5660 5658 5657 5656 5654 5653 5652
5668 5667 5662 5660 5671 5675 5670 5682 5683 5683 5685 5683 5679 5687 5693 5689 5689 5689 5689 5689 5688 5689 5688 5686 5685 5683 5682 5680 5678 5675 5673 5671 5668 5665 5663 5660 5658 5656 5654 5653 5651 5650 5649 5647
5664 5659 5650 5650 5660 5654 5677 5693 5691 5687 5688 5689 5689 5691 5690 5690 5689 5690 5689 5688 5686 5686 5685 5684 5682 5681 5679 5678 5675 5672 5669 5666 5664 5661 5659 5657 5654 5652 5650 5648 5646 5646 5644 5643
5665 5657 5644 5641 5645 5654 5674 5688 5687 5681 5682 5691 5688 5689 5687 5686 5684 5684 5688 5687 5686 5685 5684 5682 5680 5678 5675 5673 5671 5667 5664 5661 5659 5656 5655 5653 5651 5648 5646 5643 5642 5641 5640 5638
5656 5653 5643 5636 5642 5645 5670 5689 5692 5684 5674 5690 5688 5685 5681 5679 5670 5677 5687 5685 5683 5682 5681 5678 5676 5673 5670 5668 5665 5662 5658 5656 5654 5653 5651 5650 5647 5645 5642 5641 5639 5637 5636 5634
5644 5639 5635 5633 5636 5649 5674 5684 5683 5663 5671 5688 5685 5682 5678 5675 5677 5681 5682 5680 5678 5677 5675 5673 5670 5667 5665 5662 5659 5656 5653 5651 5651 5649 5647 5645 5643 5641 5639 5637 5635 5633 5631 5629
5640 5634 5631 5628 5630 5646 5676 5674 5669 5672 5681 5682 5680 5679 5676 5675 5676 5676 5675 5673 5672 5669 5668 5666 5663 5660 5658 5656 5653 5650 5647 5647 5645 5643 5641 5639 5637 5636 5634 5631 5629 5627 5624 5622
5638 5643 5640 5641 5650 5664 5668 5670 5675 5675 5673 5675 5674 5674 5672 5669 5668 5668 5668 5666 5665 5663 5661 5659 5655 5652 5650 5649 5647 5644 5643 5641 5638 5636 5633 5631 5630 5629 5627 5625 5623 5620 5618 5616
5635 5640 5637 5638 5649 5658 5662 5665 5667 5668 5668 5669 5669 5668 5666 5663 5662 5661 5660 5659 5657 5656 5653 5651 5648 5645 5643 5642 5640 5639 5636 5634 5631 5628 5626 5623 5622 5620 5619 5618 5617 5614 5612 5610
5633 5630 5629 5633 5643 5650 5656 5658 5660 5661 5661 5662 5662 5661 5659 5658 5656 5655 5653 5652 5650 5649 5646 5644 5641 5639 5637 5635 5633 5631 5629 5627 5624 5621 5619 5617 5615 5613 5612 5611 5610 5609 5608 5607
5624 5626 5625 5632 5641 5640 5647 5654 5655 5654 5654 5655 5654 5653 5653 5652 5651 5650 5647 5645 5643 5642 5640 5637 5635 5632 5630 5628 5626 5624 5622 5620 5617 5614 5612 5610 5608 5607 5605 5604 5602 5602 5601 5601